Back to catalog

STARLINK-36872

AliveCommunicationsVLEO
NORAD 67955·PAYLOAD·🇺🇸 United States

Launched Feb 24, 2026 from Vandenberg Space Force Base

Loading…

Next Passes (next 24 hours)

TLE

FreshSource: CelesTrak SupGP

Epoch: Sep 15, 2026, 03:39 UTC

1 67955C 26037Z   26258.15256944 -.00050672  00000+0 -18356-2 0  2583
2 67955  42.9997 200.7278 0001288 274.4626 191.0396 15.27598938    17

Track STARLINK-36872 in real time with AllMySat

Download on the App Store